Weather History for Diyarbakir, Turkey

Change the Weather History Date:

Wednesday, August 28, 2013

  Actual Average Record
Temperature  
Mean Temperature 88 °F -  
Max Temperature 102 °F 93 °F 111 °F (1998)
Min Temperature 74 °F 63 °F 62 °F (1996)
Cooling Degree Days 23    
Growing Degree Days 38 (Base 50)    
Moisture  
Dew Point 35 °F    
Average Humidity 15    
Maximum Humidity 24    
Minimum Humidity 6    
Precipitation  
Precipitation 0.00 in 0.00 in - ()
Sea Level Pressure  
Sea Level Pressure 29.72 in    
Wind  
Wind Speed 6 mph ()    
Max Wind Speed 13 mph    
Max Gust Speed -    
Visibility 12.0 miles    
Events      
Averages and records for this station are not official NWS values.
T = Trace of Precipitation, MM = Missing Value Source: Averaged Metar Reports

Daily Weather History Graph

Daily Weather History Graph

Search for Another Location

Airport:

Trip Planner

Search our weather history database for the weather conditions in past years. The results will help you decide how hot, cold, wet, or windy it might be!

Date:

Astronomy

Aug. 28, 2013 Rise Set
Actual Time 5:45 AM EEST 6:54 PM EEST
Civil Twilight 5:18 AM EEST 7:21 PM EEST
Nautical Twilight 4:46 AM EEST 7:53 PM EEST
Astronomical Twilight 4:12 AM EEST 8:27 PM EEST
Moon 11:24 PM EEST (8/28) 1:10 PM EEST (8/28)
Length of Visible Light 14h 03m
Length of Day
13h 08m
Waning Gibbous, 50% of the Moon is Illuminated
Aug 28
Waning Gibbous
Aug 28
Last Quarter
Sep 5
New
Sep 12
First Quarter
Sep 19
Full

Hourly Weather History & Observations

Time (EEST) Temp. Dew Point Humidity Pressure Visibility Wind Dir Wind Speed Gust Speed Precip Events Conditions
12:00 AM 78 °F 31 °F 10% 29.58 in 12 mi West 8.1 mph - -  
12:20 AM 78.8 °F 32.0 °F 18% 29.74 in - West 5.8 mph - N/A   Clear
12:50 AM 80.6 °F 32.0 °F 17% 29.74 in - WNW 5.8 mph - N/A   Clear
1:20 AM 78.8 °F 32.0 °F 18% 29.74 in - West 5.8 mph - N/A   Clear
1:50 AM 78.8 °F 33.8 °F 20% 29.74 in - WNW 9.2 mph - N/A   Clear
2:20 AM 78.8 °F 32.0 °F 18% 29.74 in - WNW 9.2 mph - N/A   Clear
2:50 AM 77.0 °F 33.8 °F 21% 29.74 in - North 3.5 mph - N/A   Clear
3:00 AM 77 °F 33 °F 11% 29.58 in 12 mi North 3.5 mph - -  
3:20 AM 75.2 °F 33.8 °F 22% 29.74 in - West 3.5 mph - N/A   Clear
3:50 AM 75.2 °F 33.8 °F 22% 29.74 in - WNW 5.8 mph - N/A   Clear
4:20 AM 77.0 °F 33.8 °F 21% 29.74 in - NW 6.9 mph - N/A   Clear
4:50 AM 75.2 °F 35.6 °F 24% 29.74 in - WNW 6.9 mph - N/A   Clear
5:20 AM 75.2 °F 35.6 °F 24% 29.77 in - Variable 2.3 mph - N/A   Clear
5:50 AM 75.2 °F 35.6 °F 24% 29.77 in - WNW 6.9 mph - N/A   Clear
6:20 AM 75.2 °F 35.6 °F 24% 29.77 in - WNW 6.9 mph - N/A   Clear
6:50 AM 78.8 °F 37.4 °F 23% 29.77 in - NW 6.9 mph - N/A   Clear
7:20 AM 84.2 °F 37.4 °F 19% 29.77 in - West 8.1 mph - N/A   Clear
7:50 AM 86.0 °F 39.2 °F 19% 29.80 in - WNW 9.2 mph - N/A   Clear
8:20 AM 86.0 °F 39.2 °F 19% 29.80 in - NW 9.2 mph - N/A   Clear
8:50 AM 89.6 °F 42.8 °F 20% 29.80 in - North 8.1 mph - N/A   Clear
9:00 AM 89 °F 40 °F 10% 29.63 in 12 mi North 8.1 mph - -  
9:20 AM 89.6 °F 41.0 °F 18% 29.80 in - North 6.9 mph - N/A   Clear
9:50 AM 91.4 °F 41.0 °F 17% 29.80 in - North 6.9 mph - N/A   Clear
10:20 AM 93.2 °F 39.2 °F 15% 29.80 in - Variable 5.8 mph - N/A   Clear
10:50 AM 95.0 °F 39.2 °F 14% 29.80 in - Variable 4.6 mph - N/A   Clear
11:20 AM 96.8 °F 41.0 °F 15% 29.77 in - ESE 6.9 mph - N/A   Clear
11:50 AM 96.8 °F 41.0 °F 15% 29.77 in - ESE 6.9 mph - N/A   Clear
12:00 PM 97 °F 39 °F 7% 29.61 in 12 mi ESE 6.9 mph - -  
12:20 PM 98.6 °F 41.0 °F 14% 29.77 in - Variable 4.6 mph - N/A   Clear
12:50 PM 98.6 °F 41.0 °F 14% 29.74 in - Variable 3.5 mph - N/A   Clear
1:20 PM 98.6 °F 41.0 °F 14% 29.74 in - Variable 4.6 mph - N/A   Clear
1:50 PM 100.4 °F 41.0 °F 13% 29.74 in - ESE 6.9 mph - N/A   Clear
2:20 PM 100.4 °F 39.2 °F 12% 29.71 in - Variable 4.6 mph - N/A   Clear
2:50 PM 102.2 °F 41.0 °F 12% 29.71 in - Variable 4.6 mph - N/A   Clear
3:00 PM 102 °F 39 °F 6% 29.55 in 12 mi SE 8.9 mph - -  
3:20 PM 100.4 °F 35.6 °F 11% 29.71 in - ESE 5.8 mph - N/A   Clear
3:50 PM 100.4 °F 33.8 °F 10% 29.71 in - NE 5.8 mph - N/A   Clear
4:20 PM 100.4 °F 30.2 °F 9% 29.71 in - ESE 8.1 mph - N/A   Clear
4:50 PM 100.4 °F 32.0 °F 9% 29.71 in - SE 5.8 mph - N/A   Clear
5:20 PM 100.4 °F 32.0 °F 9% 29.71 in - ESE 6.9 mph - N/A   Clear
5:50 PM 98.6 °F 32.0 °F 10% 29.71 in - ESE 8.1 mph - N/A   Clear
6:20 PM 96.8 °F 32.0 °F 10% 29.71 in - SE 4.6 mph - N/A   Clear
6:50 PM 95.0 °F 32.0 °F 11% 29.71 in - ESE 4.6 mph - N/A   Clear
7:20 PM 91.4 °F 33.8 °F 13% 29.71 in - South 3.5 mph - N/A   Clear
7:50 PM 91.4 °F 33.8 °F 13% 29.71 in - Variable 1.2 mph - N/A   Clear
8:20 PM 84.2 °F 30.2 °F 14% 29.71 in - West 5.8 mph - N/A   Clear
8:50 PM 86.0 °F 30.2 °F 13% 29.71 in - West 6.9 mph - N/A   Clear
9:00 PM 86 °F 30 °F 7% 29.55 in 12 mi West 13.4 mph - -  
9:20 PM 84.2 °F 28.4 °F 13% 29.71 in - West 6.9 mph - N/A   Clear
9:50 PM 82.4 °F 30.2 °F 15% 29.71 in - West 9.2 mph - N/A   Clear
10:20 PM 82.4 °F 32.0 °F 16% 29.71 in - West 8.1 mph - N/A   Clear
10:50 PM 86.0 °F 33.8 °F 15% 29.71 in - WNW 6.9 mph - N/A   Clear
11:20 PM 84.2 °F 33.8 °F 16% 29.71 in - WNW 9.2 mph - N/A   Clear
11:50 PM 86.0 °F 32.0 °F 14% 29.71 in - WNW 11.5 mph - N/A   Clear